Location: Sungai Laei
(2.6000°N, 113.7167°E)
Time: 11:45:53
(UTC+00:00)

CZ-2C R/B - Pass Details

Date: 08 October 2022
Orbit: 703 x 908 km, 98.1° (Epoch: 08 December)

Event Time Altitude Azimuth Distance (km) Brightness Sun altitude
Rises 21:40:09 0° 338° (NNW) 3,319 6.0 -8.3°
Reaches altitude 10° 21:43:48 10° 313° (NW) 2,343 5.0 -7.4°
Maximum altitude 21:46:11 13° 285° (WNW) 2,089 4.6 -6.8°
Drops below altitude 10° 21:48:32 10° 256° (WSW) 2,287 4.9 -6.3°
Sets 21:52:01 0° 230° (SW) 3,172 5.8 -5.4°
